[[{"header":{"parameterUnit":"m.s-1","parameterCategory":1,"la1":30.2991,"la2":30.254,"lo1":-89.0895,"lo2":-89.0444,"dy":0.0017,"dx":0.0017,"nx":28,"ny":28,"refTime":"2025-11-23T03:00:00:Z","depth":0,"parameterNumber":2,"parameterNumberName":"U-component_of_WINDS"},"data":[0,0,0,0,0,0,0,0,0,0,0,0,0,0,0,0,0,0,0,0,0,0,0,0,0,0,0,0,0,0,0,0,0,0,0,0,0,0,0,0,0,0,0,0,0,0,0,0,0,0,0,0,0,0,0,0,0,0,-1.292,-1.2919,0,-1.2865,-1.2865,-1.2864,-1.2849,-1.2849,-1.2849,-1.285,-1.2788,-1.2786,-1.2784,0,0,0,0,0,0,0,0,0,0,0,0,0,-1.3007,-1.3005,-1.292,-1.2919,-1.2919,-1.2865,-1.2865,-1.2864,-1.2849,-1.2849,-1.2849,-1.285,-1.2788,-1.2786,-1.2784,0,0,0,0,0,0,0,0,0,0,0,0,0,-1.2962,-1.3005,-1.292,-1.2905,-1.2903,-1.2866,-1.2865,-1.2864,-1.2849,-1.2849,-1.285,-1.285,-1.2789,-1.2786,-1.2783,-1.2755,0,0,-1.2774,-1.2773,0,0,0,0,0,0,0,0,-1.2965,-1.2959,-1.2908,-1.2906,-1.2904,-1.2864,-1.2872,-1.2827,-1.2848,-1.2869,-1.285,-1.285,-1.2812,-1.2808,-1.2796,-1.2753,-1.275,-1.2774,-1.2772,-1.2771,-1.277,0,0,0,0,0,0,0,-1.2968,-1.2961,-1.2898,-1.2907,-1.2904,-1.2899,-1.2893,-1.2864,-1.2838,-1.2867,-1.2866,-1.286,-1.2811,-1.2799,-1.2795,-1.2749,-1.2774,-1.2772,-1.277,-1.2769,-1.2681,-1.268,0,0,0,0,0,0,-1.2974,-1.2964,-1.29,-1.2896,-1.2936,-1.2897,-1.2891,-1.2876,-1.2839,-1.2834,-1.286,-1.286,-1.2804,-1.2798,-1.2792,-1.2758,-1.2771,-1.2768,-1.2767,-1.2682,-1.2681,-1.268,0,0,0,0,0,0,-1.2976,-1.2969,-1.2902,-1.293,-1.2921,-1.2895,-1.2879,-1.2875,-1.2863,-1.2833,-1.2828,-1.2852,-1.2804,-1.2796,-1.2765,-1.2756,-1.2767,-1.2764,-1.2682,-1.2681,-1.2681,-1.2689,0,0,0,0,0,0,-1.2979,-1.297,-1.296,-1.293,-1.292,-1.2877,-1.2879,-1.2874,-1.2858,-1.2858,-1.2825,-1.2819,-1.2804,-1.277,-1.2763,-1.2752,-1.2762,-1.2683,-1.2682,-1.2681,-1.2689,-1.2688,-1.2687,0,0,0,0,0,-1.2982,-1.2962,-1.2959,-1.2952,-1.2907,-1.2877,-1.2871,-1.2855,-1.2858,-1.2847,-1.2828,-1.2821,-1.2758,-1.2767,-1.2758,-1.2747,-1.2683,-1.2682,-1.2681,-1.2689,-1.2688,-1.2687,0,0,0,0,0,0,-1.2989,-1.2958,-1.2954,-1.2925,-1.2904,-1.2875,-1.286,-1.2854,-1.283,-1.283,-1.2809,-1.2802,-1.2773,-1.2756,-1.2767,-1.2718,-1.272,-1.2717,-1.273,-1.2729,-1.2728,-1.2732,-1.276,0,0,0,0,0,-1.2988,-1.2968,-1.2941,-1.2918,-1.2908,-1.2886,-1.2872,-1.2862,-1.2839,-1.2829,-1.2808,-1.2784,-1.2759,-1.2743,-1.2718,-1.2687,-1.2679,-1.2675,-1.2674,-1.2673,-1.2671,-1.2654,-1.2651,-1.2676,-1.2676,-1.2676,0,0,-1.2984,-1.2964,-1.2952,-1.2919,-1.2901,-1.288,-1.2878,-1.2855,-1.2839,-1.2825,-1.2795,-1.2779,-1.2751,-1.272,-1.2705,-1.2705,-1.2662,-1.2672,-1.2671,-1.2669,-1.2652,-1.265,-1.2648,-1.2675,-1.2675,-1.2675,0,0,-1.2965,-1.2949,-1.2928,-1.2912,-1.2886,-1.2873,-1.2868,-1.284,-1.2829,-1.28,-1.2789,-1.2768,-1.2726,-1.2707,-1.2691,-1.2668,-1.266,-1.2661,-1.2656,-1.2639,-1.2637,-1.2635,-1.2627,-1.2625,-1.2658,-1.2658,-1.2658,0,-1.2963,-1.2932,-1.2918,-1.2896,-1.2882,-1.2871,-1.2849,-1.2833,-1.28,-1.279,-1.2791,-1.2739,-1.2719,-1.2684,-1.2679,-1.2666,-1.266,-1.2664,-1.2639,-1.2637,-1.2635,-1.2627,-1.2624,-1.2658,-1.2658,-1.2658,-1.2658,0,-1.293,-1.2909,-1.2895,-1.2867,-1.285,-1.2828,-1.281,-1.2795,-1.2787,-1.2773,-1.2743,-1.2719,-1.269,-1.2681,-1.2671,-1.2645,-1.2646,-1.2644,-1.2645,-1.2633,-1.2626,-1.2622,-1.2659,-1.2659,-1.2659,-1.2659,0,0,-1.2913,-1.288,-1.2875,-1.2862,-1.2834,-1.2817,-1.2794,-1.2768,-1.2756,-1.2734,-1.2714,-1.268,-1.2678,-1.2661,-1.2649,-1.2635,-1.2619,-1.2634,-1.2633,-1.2632,-1.2588,-1.2591,-1.2587,-1.2614,-1.2613,-1.2613,-1.2591,0,-1.2892,-1.2854,-1.2842,-1.281,-1.279,-1.278,-1.2761,-1.2741,-1.2727,-1.2707,-1.2691,-1.2668,-1.2667,-1.2656,-1.2642,-1.2624,-1.261,-1.2625,-1.2594,-1.2593,-1.2602,-1.2583,-1.2585,-1.2565,-1.2588,-1.2587,-1.2587,0,-1.2861,-1.2842,-1.2809,-1.2785,-1.2776,-1.2759,-1.2735,-1.2716,-1.2694,-1.2685,-1.2667,-1.2657,-1.2632,-1.2637,-1.2602,-1.2613,-1.26,-1.2589,-1.2588,-1.2584,-1.2589,-1.2579,-1.2559,-1.2556,-1.2582,-1.2582,-1.2583,0,-1.2853,-1.2818,-1.2794,-1.2784,-1.2755,-1.2744,-1.2731,-1.2709,-1.2695,-1.2673,-1.2663,-1.2638,-1.2624,-1.2605,-1.2588,-1.2593,-1.2555,-1.2558,-1.2547,-1.2547,-1.2538,-1.2539,-1.2516,-1.253,-1.253,-1.253,-1.253,0,-1.283,-1.281,-1.279,-1.2775,-1.2753,-1.2738,-1.2716,-1.2702,-1.2683,-1.2665,-1.2654,-1.2637,-1.2616,-1.2595,-1.2582,-1.2556,-1.2549,-1.2541,-1.2537,-1.2542,-1.2543,-1.2532,-1.2533,-1.253,-1.253,-1.253,-1.253,0,-1.2817,-1.2803,-1.2776,-1.2752,-1.2746,-1.273,-1.2709,-1.2694,-1.2681,-1.2658,-1.2651,-1.263,-1.2605,-1.2587,-1.2554,-1.2546,-1.2518,-1.2514,-1.2526,-1.2524,-1.2514,-1.2516,-1.2483,-1.2478,-1.2496,-1.2496,-1.2496,0,-1.2803,-1.2788,-1.2763,-1.2752,-1.274,-1.272,-1.2706,-1.2692,-1.2677,-1.2652,-1.2639,-1.2615,-1.2594,-1.2556,-1.2536,-1.2511,-1.2507,-1.2498,-1.2503,-1.2508,-1.2507,-1.2508,-1.2507,-1.2496,-1.2496,-1.2496,-1.2496,0,-1.278,-1.2775,-1.2756,-1.2736,-1.272,-1.2702,-1.2684,-1.2675,-1.2657,-1.2641,-1.2618,-1.2602,-1.2571,-1.2546,-1.252,-1.2505,-1.2497,-1.2495,-1.2491,-1.2495,-1.2503,-1.2499,-1.2524,-1.2495,-1.2496,-1.2496,-1.2496,-1.2496,-1.2766,-1.2753,-1.2734,-1.2714,-1.27,-1.2684,-1.2669,-1.2655,-1.2636,-1.2611,-1.2603,-1.2578,-1.2556,-1.2521,-1.2506,-1.2486,-1.2486,-1.248,-1.2479,-1.2477,-1.2478,-1.2507,-1.2481,-1.2481,-1.2481,-1.2481,-1.2481,0,-1.2743,-1.2731,-1.2713,-1.269,-1.2674,-1.2671,-1.2652,-1.2638,-1.2617,-1.2599,-1.258,-1.2553,-1.253,-1.251,-1.2485,-1.2473,-1.2469,-1.2467,-1.2467,-1.2464,-1.2479,-1.2485,-1.2471,-1.2471,-1.2471,-1.2471,-1.2471,-1.2471,-1.2729,-1.2707,-1.2699,-1.2669,-1.2657,-1.2635,-1.2624,-1.2609,-1.2595,-1.2566,-1.2548,-1.2536,-1.2516,-1.2491,-1.2469,-1.2464,-1.2455,-1.2454,-1.2448,-1.2462,-1.2463,-1.2464,-1.247,-1.2452,-1.2452,-1.2434,-1.2434,-1.2434]},{"header":{"parameterUnit":"m.s-1","parameterCategory":1,"la1":30.2991,"la2":30.254,"lo1":-89.0895,"lo2":-89.0444,"dy":0.0017,"dx":0.0017,"nx":28,"ny":28,"refTime":"2025-11-23T03:00:00:Z","depth":0,"parameterNumber":3,"parameterNumberName":"V-component_of_WINDS"},"data":[0,0,0,0,0,0,0,0,0,0,0,0,0,0,0,0,0,0,0,0,0,0,0,0,0,0,0,0,0,0,0,0,0,0,0,0,0,0,0,0,0,0,0,0,0,0,0,0,0,0,0,0,0,0,0,0,0,0,-1.9522,-1.9523,0,-1.9586,-1.9586,-1.9587,-1.9666,-1.9667,-1.9669,-1.967,-1.9729,-1.973,-1.973,0,0,0,0,0,0,0,0,0,0,0,0,0,-1.9463,-1.9463,-1.9522,-1.9523,-1.9523,-1.9586,-1.9586,-1.9587,-1.9666,-1.9667,-1.9669,-1.967,-1.9729,-1.9729,-1.973,0,0,0,0,0,0,0,0,0,0,0,0,0,-1.9503,-1.9464,-1.9522,-1.957,-1.9575,-1.9585,-1.9586,-1.9587,-1.9666,-1.9668,-1.9669,-1.9671,-1.9729,-1.9729,-1.973,-1.9695,0,0,-1.9732,-1.9732,0,0,0,0,0,0,0,0,-1.9501,-1.9505,-1.9562,-1.9567,-1.9573,-1.962,-1.9587,-1.9623,-1.9665,-1.9631,-1.967,-1.9672,-1.9691,-1.9695,-1.9702,-1.9698,-1.9701,-1.9732,-1.9732,-1.9732,-1.9733,0,0,0,0,0,0,0,-1.9498,-1.9503,-1.9547,-1.9563,-1.9569,-1.9587,-1.9595,-1.9595,-1.9649,-1.9634,-1.964,-1.9647,-1.9694,-1.9702,-1.9704,-1.9702,-1.9732,-1.9732,-1.9733,-1.9733,-1.9671,-1.967,0,0,0,0,0,0,-1.9489,-1.95,-1.9545,-1.9549,-1.9541,-1.9587,-1.9596,-1.9603,-1.965,-1.9659,-1.9645,-1.965,-1.97,-1.9703,-1.9707,-1.9668,-1.9732,-1.9733,-1.9733,-1.9673,-1.9671,-1.9669,0,0,0,0,0,0,-1.9487,-1.9492,-1.9542,-1.9526,-1.9534,-1.9586,-1.9593,-1.9603,-1.9611,-1.9658,-1.9668,-1.9643,-1.9701,-1.9706,-1.9698,-1.9672,-1.9733,-1.9734,-1.9676,-1.9673,-1.967,-1.9592,0,0,0,0,0,0,-1.9485,-1.9491,-1.948,-1.9525,-1.9535,-1.9534,-1.9592,-1.9603,-1.9612,-1.962,-1.9659,-1.9667,-1.9703,-1.9697,-1.9698,-1.9673,-1.9734,-1.9678,-1.9674,-1.9671,-1.9597,-1.9586,-1.9578,0,0,0,0,0,-1.9483,-1.9454,-1.9479,-1.9483,-1.9522,-1.9532,-1.9537,-1.9581,-1.961,-1.9598,-1.9628,-1.9666,-1.9675,-1.9695,-1.9698,-1.9673,-1.968,-1.9676,-1.9671,-1.9601,-1.9589,-1.9578,0,0,0,0,0,0,-1.9401,-1.9461,-1.9489,-1.9474,-1.9498,-1.9546,-1.9532,-1.9567,-1.9581,-1.9587,-1.9639,-1.9647,-1.9632,-1.9652,-1.9674,-1.9641,-1.9683,-1.9679,-1.9629,-1.9617,-1.9608,-1.9602,-1.9735,0,0,0,0,0,-1.9382,-1.9387,-1.9439,-1.9421,-1.9431,-1.9479,-1.9485,-1.9518,-1.9543,-1.9553,-1.9583,-1.9604,-1.9612,-1.9616,-1.9626,-1.9601,-1.9609,-1.9585,-1.9575,-1.9567,-1.9562,-1.9549,-1.9538,-1.9654,-1.9654,-1.9654,0,0,-1.9341,-1.9375,-1.9374,-1.9405,-1.9427,-1.9429,-1.9487,-1.9487,-1.9489,-1.9552,-1.9547,-1.9569,-1.9597,-1.958,-1.9574,-1.9596,-1.9532,-1.9561,-1.9554,-1.9554,-1.9543,-1.9532,-1.9522,-1.9651,-1.9652,-1.9652,0,0,-1.9268,-1.9295,-1.9283,-1.9304,-1.9337,-1.937,-1.9367,-1.941,-1.9428,-1.9424,-1.9471,-1.9473,-1.9486,-1.9503,-1.9514,-1.9448,-1.9482,-1.945,-1.9398,-1.9385,-1.9376,-1.9368,-1.9342,-1.9333,-1.9445,-1.9445,-1.9445,0,-1.9213,-1.922,-1.9271,-1.9269,-1.928,-1.934,-1.9327,-1.9345,-1.9378,-1.9384,-1.9409,-1.9426,-1.9449,-1.9436,-1.942,-1.9427,-1.9424,-1.9444,-1.9373,-1.9366,-1.9359,-1.9336,-1.9326,-1.9441,-1.9441,-1.9442,-1.9442,0,-1.915,-1.9154,-1.914,-1.9173,-1.9183,-1.9175,-1.9223,-1.9227,-1.9258,-1.9287,-1.9281,-1.9312,-1.9328,-1.9328,-1.9358,-1.9319,-1.9332,-1.9364,-1.9406,-1.9343,-1.9321,-1.9313,-1.9434,-1.9436,-1.9437,-1.9438,0,0,-1.9025,-1.9088,-1.9082,-1.9097,-1.9139,-1.9142,-1.9137,-1.9155,-1.9156,-1.9178,-1.9173,-1.9183,-1.9213,-1.9225,-1.9258,-1.9246,-1.919,-1.928,-1.9281,-1.926,-1.9147,-1.9121,-1.9109,-1.9214,-1.9213,-1.9211,-1.9144,0,-1.8958,-1.8954,-1.8999,-1.8982,-1.8985,-1.9043,-1.9038,-1.9061,-1.9089,-1.9094,-1.9124,-1.9129,-1.917,-1.9178,-1.9169,-1.9199,-1.9167,-1.9204,-1.9207,-1.9207,-1.9196,-1.9099,-1.9071,-1.9006,-1.9136,-1.9135,-1.9134,0,-1.8879,-1.8898,-1.8881,-1.8924,-1.8927,-1.8922,-1.8942,-1.8948,-1.8975,-1.8996,-1.9009,-1.9047,-1.9043,-1.9085,-1.9078,-1.9102,-1.9106,-1.9121,-1.9119,-1.9119,-1.9165,-1.9094,-1.8986,-1.8976,-1.9122,-1.9123,-1.9123,0,-1.8787,-1.8809,-1.8802,-1.8813,-1.8863,-1.8858,-1.8878,-1.8908,-1.8916,-1.8933,-1.8939,-1.8954,-1.8962,-1.8972,-1.9013,-1.904,-1.9,-1.9046,-1.9015,-1.9014,-1.9002,-1.9002,-1.8891,-1.9008,-1.9008,-1.9008,-1.9009,0,-1.8707,-1.8693,-1.8761,-1.8756,-1.8742,-1.8795,-1.8779,-1.8805,-1.8831,-1.8831,-1.8882,-1.8879,-1.8934,-1.8938,-1.897,-1.8958,-1.8961,-1.8976,-1.8984,-1.897,-1.8968,-1.8972,-1.8977,-1.9006,-1.9006,-1.9007,-1.9007,0,-1.8601,-1.8646,-1.8642,-1.869,-1.8702,-1.8689,-1.873,-1.8726,-1.8758,-1.8756,-1.8759,-1.8806,-1.8813,-1.8856,-1.8872,-1.8893,-1.8869,-1.8887,-1.8859,-1.8864,-1.883,-1.8832,-1.8717,-1.8703,-1.883,-1.8829,-1.8828,0,-1.8545,-1.8537,-1.8585,-1.8589,-1.8608,-1.8614,-1.8623,-1.8674,-1.8681,-1.8712,-1.8704,-1.8716,-1.8727,-1.8735,-1.877,-1.8782,-1.8799,-1.8758,-1.8801,-1.8787,-1.8796,-1.8795,-1.8794,-1.8748,-1.8746,-1.8745,-1.8744,0,-1.8441,-1.8464,-1.8476,-1.8496,-1.8506,-1.8523,-1.8543,-1.8543,-1.86,-1.8605,-1.8614,-1.8623,-1.864,-1.865,-1.8668,-1.8687,-1.8723,-1.8731,-1.8724,-1.8708,-1.8692,-1.8698,-1.8832,-1.8732,-1.8734,-1.8734,-1.8735,-1.8735,-1.8357,-1.8352,-1.8386,-1.8397,-1.8418,-1.8436,-1.8435,-1.8467,-1.8476,-1.8495,-1.8525,-1.8529,-1.8556,-1.8585,-1.8601,-1.8603,-1.8625,-1.8615,-1.8612,-1.8608,-1.86,-1.8694,-1.8607,-1.8607,-1.8608,-1.8608,-1.8608,0,-1.8254,-1.8279,-1.8289,-1.8317,-1.8325,-1.8363,-1.8387,-1.8391,-1.8395,-1.8419,-1.843,-1.8439,-1.8449,-1.8485,-1.8498,-1.8493,-1.851,-1.8494,-1.8494,-1.8497,-1.8581,-1.8585,-1.848,-1.848,-1.848,-1.848,-1.848,-1.848,-1.8201,-1.8194,-1.8221,-1.8224,-1.8249,-1.8255,-1.8265,-1.8281,-1.8301,-1.8309,-1.8319,-1.8343,-1.8371,-1.8387,-1.8397,-1.8407,-1.8409,-1.8387,-1.8402,-1.8479,-1.8492,-1.8503,-1.8507,-1.8387,-1.8387,-1.8318,-1.8317,-1.8317]}]]